[[{"header":{"parameterUnit":"m.s-1","parameterCategory":1,"la1":30.2991,"la2":30.254,"lo1":-89.0895,"lo2":-89.0444,"dy":0.0017,"dx":0.0017,"nx":28,"ny":28,"refTime":"2025-04-27T21:00:00:Z","depth":0,"parameterNumber":2,"parameterNumberName":"U-component_of_WINDS"},"data":[0,0,0,0,0,0,0,0,0,0,0,0,0,0,0,0,0,0,0,0,0,0,0,0,0,0,0,0,0,0,0,0,0,0,0,0,0,0,0,0,0,0,0,0,0,0,0,0,0,0,0,0,0,0,0,0,0,0,-3.5041,-3.5042,0,-3.5125,-3.5126,-3.5127,-3.5106,-3.5104,-3.5103,-3.5101,-3.5187,-3.5191,-3.5195,0,0,0,0,0,0,0,0,0,0,0,0,0,-3.4863,-3.4866,-3.5041,-3.5042,-3.5043,-3.5125,-3.5126,-3.5127,-3.5106,-3.5104,-3.5102,-3.51,-3.5186,-3.519,-3.5195,0,0,0,0,0,0,0,0,0,0,0,0,0,-3.4943,-3.4867,-3.5041,-3.5042,-3.5043,-3.5125,-3.5126,-3.5128,-3.5107,-3.5104,-3.5102,-3.5099,-3.5184,-3.519,-3.5196,-3.5281,0,0,-3.5213,-3.5216,0,0,0,0,0,0,0,0,-3.4938,-3.4949,-3.5041,-3.5042,-3.5044,-3.5103,-3.5095,-3.5179,-3.5107,-3.5083,-3.5101,-3.5098,-3.5161,-3.5169,-3.519,-3.5285,-3.5288,-3.5214,-3.5217,-3.522,-3.5221,0,0,0,0,0,0,0,-3.4933,-3.4946,-3.5074,-3.5043,-3.5044,-3.5039,-3.5048,-3.5111,-3.5135,-3.5085,-3.5083,-3.5094,-3.5161,-3.5184,-3.5192,-3.529,-3.5214,-3.5219,-3.5222,-3.5224,-3.5459,-3.5462,0,0,0,0,0,0,-3.4926,-3.4941,-3.5072,-3.5077,-3.4984,-3.5044,-3.5054,-3.5086,-3.5134,-3.5139,-3.5096,-3.5092,-3.5176,-3.5185,-3.5195,-3.5297,-3.522,-3.5225,-3.5228,-3.5456,-3.546,-3.5463,0,0,0,0,0,0,-3.4922,-3.4938,-3.5068,-3.5009,-3.5025,-3.505,-3.5086,-3.5089,-3.5112,-3.5142,-3.5146,-3.5115,-3.5174,-3.5186,-3.526,-3.5299,-3.5228,-3.5233,-3.5453,-3.5457,-3.5461,-3.5502,0,0,0,0,0,0,-3.4917,-3.4937,-3.4969,-3.501,-3.5028,-3.5131,-3.5089,-3.5093,-3.5122,-3.5118,-3.5161,-3.5166,-3.5173,-3.5251,-3.5265,-3.5306,-3.5237,-3.5449,-3.5455,-3.546,-3.5497,-3.5507,-3.5515,0,0,0,0,0,-3.4911,-3.4977,-3.4971,-3.4986,-3.5069,-3.5134,-3.5144,-3.5151,-3.5125,-3.5158,-3.5178,-3.5165,-3.5293,-3.5259,-3.5274,-3.5318,-3.5447,-3.5453,-3.5459,-3.5493,-3.5505,-3.5515,0,0,0,0,0,0,-3.494,-3.4982,-3.4976,-3.5057,-3.5092,-3.513,-3.5171,-3.5164,-3.5207,-3.5202,-3.5209,-3.5219,-3.5293,-3.5313,-3.5274,-3.5403,-3.5366,-3.5376,-3.5386,-3.5398,-3.5407,-3.54,-3.5242,0,0,0,0,0,-3.4956,-3.5005,-3.5039,-3.5107,-3.5125,-3.5146,-3.5174,-3.5177,-3.5213,-3.5228,-3.5253,-3.5289,-3.5338,-3.5369,-3.5416,-3.5501,-3.5509,-3.5538,-3.5548,-3.5555,-3.5563,-3.5609,-3.5622,-3.5483,-3.5483,-3.5483,0,0,-3.4988,-3.5018,-3.5048,-3.5114,-3.5141,-3.5192,-3.5158,-3.5213,-3.5251,-3.5236,-3.5306,-3.5326,-3.5367,-3.5447,-3.5483,-3.5465,-3.5603,-3.5563,-3.5569,-3.5572,-3.5617,-3.563,-3.5641,-3.5488,-3.5487,-3.5486,0,0,-3.5074,-3.5101,-3.5161,-3.519,-3.5232,-3.5245,-3.526,-3.53,-3.5312,-3.5383,-3.5374,-3.5419,-3.5503,-3.5532,-3.5558,-3.5657,-3.5647,-3.5673,-3.5719,-3.5764,-3.5775,-3.5785,-3.5819,-3.5832,-3.5681,-3.5681,-3.5681,0,-3.5109,-3.5184,-3.5192,-3.5248,-3.5277,-3.5268,-3.5328,-3.5356,-3.5412,-3.5432,-3.5412,-3.5518,-3.5545,-3.563,-3.5655,-3.5677,-3.5693,-3.5666,-3.5773,-3.5783,-3.5792,-3.5825,-3.5838,-3.5683,-3.5683,-3.5683,-3.5683,0,-3.5225,-3.5278,-3.5321,-3.5375,-3.541,-3.5468,-3.5485,-3.5519,-3.5519,-3.5535,-3.5608,-3.564,-3.5693,-3.5714,-3.5715,-3.5801,-3.5788,-3.5771,-3.5734,-3.5808,-3.5839,-3.5851,-3.5687,-3.5686,-3.5686,-3.5685,0,0,-3.5328,-3.5387,-3.5403,-3.5427,-3.5474,-3.5515,-3.5574,-3.5626,-3.5654,-3.5694,-3.5742,-3.5815,-3.5799,-3.5829,-3.5834,-3.5873,-3.5949,-3.5851,-3.5852,-3.5867,-3.6044,-3.6055,-3.607,-3.5943,-3.5946,-3.5948,-3.604,0,-3.5416,-3.5518,-3.5528,-3.5619,-3.5668,-3.5661,-3.5712,-3.5746,-3.5763,-3.5807,-3.5826,-3.5877,-3.5853,-3.5871,-3.591,-3.5931,-3.5984,-3.5925,-3.5988,-3.599,-3.5975,-3.6086,-3.6098,-3.6183,-3.6053,-3.6055,-3.6056,0,-3.5532,-3.5575,-3.5671,-3.5712,-3.5733,-3.5778,-3.5827,-3.5869,-3.5909,-3.5919,-3.5953,-3.5953,-3.6013,-3.5976,-3.606,-3.6019,-3.6046,-3.6061,-3.6064,-3.6068,-3.6026,-3.6091,-3.6211,-3.6223,-3.6076,-3.6074,-3.6073,0,-3.5595,-3.5677,-3.5745,-3.5767,-3.5817,-3.5849,-3.5871,-3.5909,-3.594,-3.5983,-3.6003,-3.6053,-3.608,-3.6119,-3.6132,-3.6104,-3.6215,-3.6179,-3.6224,-3.6223,-3.6245,-3.6243,-3.6368,-3.6266,-3.6266,-3.6266,-3.6265,0,-3.5691,-3.5749,-3.5774,-3.5816,-3.5882,-3.5894,-3.5959,-3.5979,-3.6013,-3.6059,-3.6057,-3.61,-3.6116,-3.6163,-3.6174,-3.6241,-3.6253,-3.6263,-3.6264,-3.6261,-3.626,-3.6277,-3.6271,-3.6269,-3.6268,-3.6268,-3.6267,0,-3.5771,-3.579,-3.5864,-3.5906,-3.5918,-3.5965,-3.6001,-3.6041,-3.6058,-3.6116,-3.6131,-3.6158,-3.6212,-3.623,-3.6296,-3.6304,-3.6381,-3.6379,-3.6367,-3.6367,-3.641,-3.6405,-3.6549,-3.6568,-3.6455,-3.6456,-3.6457,0,-3.583,-3.5875,-3.5922,-3.5953,-3.5976,-3.6026,-3.6057,-3.6072,-3.6105,-3.6154,-3.6189,-3.6243,-3.6286,-3.6374,-3.6399,-3.645,-3.6448,-3.6495,-3.6455,-3.6451,-3.6446,-3.6442,-3.6447,-3.6501,-3.6502,-3.6503,-3.6504,0,-3.5931,-3.5939,-3.5985,-3.6035,-3.6073,-3.6112,-3.6151,-3.6176,-3.6196,-3.6234,-3.6289,-3.6323,-3.6391,-3.6444,-3.6496,-3.652,-3.6515,-3.6517,-3.653,-3.6526,-3.6516,-3.652,-3.6385,-3.6513,-3.6512,-3.6511,-3.6511,-3.6511,-3.6001,-3.6041,-3.6081,-3.6132,-3.6163,-3.6199,-3.6239,-3.6262,-3.6308,-3.6364,-3.637,-3.643,-3.647,-3.6539,-3.6566,-3.6613,-3.66,-3.6618,-3.6623,-3.6626,-3.6629,-3.6511,-3.6623,-3.6623,-3.6622,-3.6622,-3.6622,0,-3.6101,-3.6127,-3.6174,-3.6228,-3.6269,-3.6263,-3.6305,-3.634,-3.6392,-3.643,-3.6473,-3.6537,-3.659,-3.6621,-3.6673,-3.6705,-3.6704,-3.6718,-3.6715,-3.672,-3.6639,-3.6621,-3.6718,-3.6718,-3.6718,-3.6718,-3.6718,-3.6718,-3.6158,-3.6224,-3.6237,-3.6319,-3.6345,-3.6403,-3.6428,-3.6462,-3.6492,-3.6563,-3.6607,-3.6627,-3.6662,-3.6718,-3.6765,-3.6773,-3.6792,-3.6807,-3.6813,-3.6736,-3.6726,-3.6716,-3.67,-3.6811,-3.6811,-3.689,-3.6891,-3.6892]},{"header":{"parameterUnit":"m.s-1","parameterCategory":1,"la1":30.2991,"la2":30.254,"lo1":-89.0895,"lo2":-89.0444,"dy":0.0017,"dx":0.0017,"nx":28,"ny":28,"refTime":"2025-04-27T21:00:00:Z","depth":0,"parameterNumber":3,"parameterNumberName":"V-component_of_WINDS"},"data":[0,0,0,0,0,0,0,0,0,0,0,0,0,0,0,0,0,0,0,0,0,0,0,0,0,0,0,0,0,0,0,0,0,0,0,0,0,0,0,0,0,0,0,0,0,0,0,0,0,0,0,0,0,0,0,0,0,0,1.6357,1.6357,0,1.6353,1.6353,1.6353,1.6329,1.6328,1.6328,1.6327,1.632,1.632,1.6321,0,0,0,0,0,0,0,0,0,0,0,0,0,1.6343,1.6343,1.6357,1.6357,1.6357,1.6353,1.6353,1.6353,1.6329,1.6328,1.6327,1.6327,1.632,1.632,1.6321,0,0,0,0,0,0,0,0,0,0,0,0,0,1.6345,1.6344,1.6357,1.6345,1.6343,1.6353,1.6353,1.6353,1.6329,1.6328,1.6327,1.6326,1.632,1.632,1.6321,1.6341,0,0,1.6322,1.6323,0,0,0,0,0,0,0,0,1.6345,1.6346,1.6347,1.6346,1.6344,1.6341,1.6345,1.6349,1.6329,1.6334,1.6327,1.6326,1.6327,1.6327,1.6328,1.6341,1.6341,1.6322,1.6323,1.6323,1.6323,0,0,0,0,0,0,0,1.6345,1.6346,1.6355,1.6347,1.6345,1.6339,1.6338,1.6346,1.6336,1.6334,1.6332,1.6332,1.6326,1.6328,1.6328,1.6341,1.6322,1.6323,1.6323,1.6323,1.6372,1.6372,0,0,0,0,0,0,1.6347,1.6346,1.6356,1.6355,1.6343,1.634,1.6339,1.6343,1.6336,1.6334,1.6333,1.6331,1.6327,1.6327,1.6328,1.6352,1.6323,1.6323,1.6324,1.6371,1.6372,1.6373,0,0,0,0,0,0,1.6347,1.6348,1.6356,1.635,1.6351,1.6341,1.6345,1.6343,1.6344,1.6335,1.6333,1.6336,1.6327,1.6327,1.6339,1.6351,1.6324,1.6324,1.6369,1.6371,1.6372,1.64,0,0,0,0,0,0,1.6346,1.6348,1.6356,1.635,1.6351,1.6367,1.6346,1.6343,1.6345,1.6343,1.6337,1.6335,1.6326,1.6338,1.6339,1.6352,1.6325,1.6368,1.637,1.6372,1.6398,1.6403,1.6406,0,0,0,0,0,1.6346,1.6363,1.6356,1.6358,1.6361,1.6368,1.6368,1.6358,1.6347,1.6354,1.6349,1.6336,1.635,1.6339,1.634,1.6353,1.6367,1.637,1.6372,1.6397,1.6402,1.6406,0,0,0,0,0,0,1.6368,1.6362,1.6354,1.637,1.637,1.6364,1.6373,1.6364,1.6366,1.6363,1.6349,1.6348,1.6362,1.6359,1.6347,1.6374,1.6357,1.6359,1.6375,1.638,1.6384,1.6384,1.6325,0,0,0,0,0,1.6375,1.6383,1.6376,1.6391,1.6391,1.6383,1.6385,1.6378,1.6376,1.6376,1.6371,1.637,1.6374,1.6377,1.638,1.6398,1.6397,1.6408,1.6412,1.6415,1.6417,1.6428,1.6432,1.638,1.638,1.638,0,0,1.6389,1.6387,1.6392,1.6396,1.6394,1.6402,1.6382,1.6391,1.6396,1.6377,1.6388,1.6385,1.6382,1.6398,1.6404,1.6395,1.6432,1.6418,1.6421,1.6421,1.643,1.6435,1.644,1.6381,1.6381,1.6381,0,0,1.6419,1.6418,1.6431,1.6431,1.643,1.6424,1.6427,1.6423,1.6421,1.6432,1.6418,1.6424,1.6432,1.6431,1.6432,1.6464,1.6452,1.6466,1.6486,1.6497,1.6501,1.6504,1.6516,1.6521,1.6468,1.6468,1.6468,0,1.6436,1.6448,1.6438,1.6448,1.645,1.6435,1.6448,1.6448,1.6448,1.645,1.644,1.6451,1.6448,1.6464,1.6472,1.6473,1.6476,1.6466,1.6501,1.6505,1.6508,1.6519,1.6523,1.647,1.6469,1.6469,1.6469,0,1.6469,1.6478,1.6488,1.649,1.6494,1.6505,1.6497,1.6502,1.6494,1.649,1.6502,1.6499,1.6502,1.6505,1.6497,1.652,1.6515,1.6504,1.6486,1.6515,1.6525,1.6529,1.6472,1.6471,1.6471,1.647,0,0,1.6511,1.651,1.6514,1.6515,1.6514,1.652,1.6531,1.6536,1.654,1.6541,1.655,1.6559,1.6549,1.655,1.6542,1.6551,1.6578,1.6538,1.6538,1.6546,1.6603,1.6612,1.6617,1.657,1.6571,1.6572,1.6604,0,1.654,1.6559,1.6552,1.6572,1.658,1.6567,1.6576,1.6577,1.6574,1.658,1.6575,1.6582,1.6568,1.6568,1.6577,1.6572,1.6589,1.657,1.6578,1.6579,1.6579,1.6622,1.6631,1.6661,1.6607,1.6608,1.6609,0,1.6575,1.658,1.6601,1.6601,1.6604,1.6613,1.6617,1.6623,1.6624,1.6621,1.6623,1.6614,1.6625,1.6608,1.6623,1.6611,1.6614,1.6613,1.6614,1.6613,1.6595,1.6623,1.667,1.6675,1.6615,1.6614,1.6614,0,1.6604,1.6615,1.663,1.6632,1.6631,1.6638,1.6638,1.6638,1.6642,1.6646,1.6648,1.6653,1.6655,1.6659,1.6651,1.664,1.6667,1.665,1.6665,1.6665,1.6671,1.667,1.6719,1.6673,1.6673,1.6673,1.6673,0,1.6637,1.665,1.6643,1.6652,1.6667,1.6659,1.6674,1.6672,1.6673,1.6681,1.667,1.6678,1.6668,1.6674,1.6669,1.6682,1.6683,1.6681,1.6679,1.6682,1.6682,1.6683,1.6681,1.6674,1.6674,1.6674,1.6674,0,1.6671,1.6667,1.6682,1.6681,1.6682,1.6693,1.6692,1.67,1.6697,1.6708,1.671,1.6704,1.6712,1.6705,1.6712,1.6708,1.6727,1.6722,1.6727,1.6726,1.6741,1.674,1.6791,1.6798,1.6749,1.6749,1.6749,0,1.6692,1.6702,1.6704,1.6709,1.671,1.6719,1.6723,1.6716,1.6721,1.6724,1.6732,1.6739,1.6745,1.6758,1.6754,1.676,1.6755,1.6773,1.6755,1.6758,1.6755,1.6755,1.6756,1.6776,1.6776,1.6777,1.6777,0,1.6729,1.6728,1.6735,1.6742,1.6748,1.6753,1.6757,1.6762,1.6755,1.6761,1.677,1.6774,1.6782,1.679,1.6795,1.6794,1.6785,1.6783,1.6787,1.679,1.6792,1.6791,1.6736,1.6782,1.6781,1.6781,1.6781,1.678,1.6758,1.6767,1.677,1.6779,1.6782,1.6786,1.6794,1.6793,1.6801,1.6808,1.6803,1.6814,1.6815,1.6821,1.6822,1.683,1.6823,1.6828,1.6829,1.6831,1.6833,1.6792,1.6831,1.6831,1.6831,1.6831,1.6831,0,1.6795,1.6797,1.6806,1.6812,1.682,1.6812,1.6816,1.6823,1.6833,1.6836,1.6842,1.6852,1.686,1.6858,1.6865,1.6872,1.6868,1.6874,1.6873,1.6873,1.6839,1.6835,1.6877,1.6877,1.6877,1.6877,1.6877,1.6877,1.6815,1.6831,1.683,1.6847,1.6849,1.686,1.6863,1.6868,1.687,1.6883,1.689,1.6889,1.689,1.6897,1.6904,1.6903,1.6906,1.6914,1.6912,1.688,1.6875,1.6871,1.6867,1.6915,1.6915,1.6945,1.6945,1.6945]}]]